Weather History for KMKG - December, 2012

Change the Weather History Date:

Saturday, December 1, 2012

  Actual Average Record
Temperature  
Mean Temperature 47 °F 34 °F  
Max Temperature 58 °F 40 °F 60 °F (1970)
Min Temperature 36 °F 29 °F 10 °F (1905)
Degree Days  
Heating Degree Days 18 31  
Month to date heating degree days 18 31  
Since 1 July heating degree days 1318 1398  
Cooling Degree Days 0 0  
Month to date cooling degree days 0 0  
Year to date cooling degree days 925 566  
Moisture  
Dew Point 38 °F    
Average Humidity 79    
Maximum Humidity 92    
Minimum Humidity 66    
Precipitation  
Precipitation 0.09 in 0.10 in 0.71 in (1985)
Month to date precipitation 0.09 0.10  
Year to date precipitation 28.64 31.04  
Snow  
Snow 0.00 in 0.60 in 6.20 in (2006)
Month to date snowfall 0.0 0.6  
Since 1 July snowfall 0.8 6.8  
Snow Depth 0.00 in    
Sea Level Pressure  
Sea Level Pressure 30.07 in    
Wind  
Wind Speed 13 mph (SE)    
Max Wind Speed 29 mph    
Max Gust Speed 38 mph    
Visibility 5 miles    
Events Rain    
T = Trace of Precipitation, MM = Missing Value Source: NWS Daily Summary

Daily Weather History Graph

Daily Weather History Graph

Search for Another Location

Airport or City:

Trip Planner

Search our weather history database for the weather conditions in past years. The results will help you decide how hot, cold, wet, or windy it might be!

Date:

Astronomy

Dec. 01, 2012 Rise Set
Actual Time 7:57 AM EST 5:10 PM EST
Civil Twilight 7:25 AM EST 5:42 PM EST
Nautical Twilight 6:50 AM EST 6:18 PM EST
Astronomical Twilight 6:15 AM EST 6:52 PM EST
Moon 8:01 PM EST (12/1) 10:09 AM EST (12/1)
Length of Visible Light 10h 16m
Length of Day
9h 13m
Waning Gibbous, 92% of the Moon is Illuminated
Dec 1
Waning Gibbous
Dec 6
Last Quarter
Dec 13
New
Dec 20
First Quarter
Dec 28
Full

Hourly Weather History & Observations

Time (EST) Temp. Windchill Dew Point Humidity Pressure Visibility Wind Dir Wind Speed Gust Speed Precip Events Conditions
12:55 AM 39.0 °F 32.8 °F 34.0 °F 82% 30.22 in 5.0 mi East 9.2 mph - N/A   Haze
1:55 AM 37.9 °F 30.5 °F 33.1 °F 83% 30.22 in 5.0 mi East 11.5 mph 18.4 mph N/A   Haze
2:55 AM 37.0 °F 29.3 °F 32.0 °F 82% 30.21 in 5.0 mi East 11.5 mph - N/A   Haze
3:55 AM 37.0 °F 28.9 °F 32.0 °F 82% 30.21 in 4.0 mi East 12.7 mph - N/A   Haze
4:55 AM 36.0 °F 26.7 °F 32.0 °F 86% 30.20 in 4.0 mi East 15.0 mph - N/A   Overcast
5:55 AM 36.0 °F 28.0 °F 32.0 °F 86% 30.18 in 4.0 mi East 11.5 mph - N/A   Overcast
6:55 AM 35.6 °F 28.0 °F 33.8 °F 93% 30.18 in 4.0 mi East 10.4 mph - N/A   Overcast
7:55 AM 37.0 °F 29.3 °F 33.1 °F 86% 30.19 in 3.0 mi ESE 11.5 mph - N/A   Overcast
8:20 AM 37.4 °F 28.9 °F 33.8 °F 87% 30.16 in 2.0 mi ESE 13.8 mph - N/A   Overcast
8:55 AM 37.0 °F 29.3 °F 33.1 °F 86% 30.18 in 2.0 mi ESE 11.5 mph 20.7 mph N/A   Overcast
9:55 AM 37.9 °F 30.0 °F 34.0 °F 86% 30.16 in 2.5 mi ESE 12.7 mph - N/A   Overcast
10:10 AM 39.2 °F 32.0 °F 33.8 °F 81% 30.14 in 3.0 mi ESE 11.5 mph - N/A   Haze
10:55 AM 39.9 °F 33.4 °F 35.1 °F 83% 30.16 in 3.0 mi ESE 10.4 mph - N/A   Haze
11:55 AM 43.0 °F 36.8 °F 36.0 °F 76% 30.12 in 4.0 mi ESE 11.5 mph - N/A   Haze
12:18 PM 44.6 °F 38.1 °F 35.6 °F 71% 30.08 in 4.0 mi ESE 13.8 mph - N/A   Haze
12:55 PM 45.0 °F 38.5 °F 37.0 °F 74% 30.08 in 5.0 mi ESE 13.8 mph - N/A   Haze
1:55 PM 48.9 °F - 37.9 °F 66% 30.04 in 5.0 mi SE 13.8 mph - N/A   Haze
2:55 PM 50.0 °F - 39.0 °F 66% 30.03 in 5.0 mi SE 11.5 mph - N/A   Haze
3:55 PM 48.9 °F - 39.9 °F 71% 30.01 in 5.0 mi SE 11.5 mph - N/A   Haze
4:55 PM 50.0 °F - 39.9 °F 68% 30.00 in 5.0 mi SE 8.1 mph - N/A   Haze
5:55 PM 50.0 °F - 41.0 °F 71% 29.96 in 6.0 mi SE 10.4 mph - N/A   Haze
6:55 PM 52.0 °F - 43.0 °F 71% 29.95 in 7.0 mi SE 8.1 mph - N/A   Overcast
7:19 PM 51.8 °F - 44.6 °F 76% 29.92 in 4.0 mi SSE 9.2 mph - 0.02 in Rain Rain
7:55 PM 53.1 °F - 48.0 °F 83% 29.91 in 5.0 mi SSE 11.5 mph - 0.03 in Rain Light Rain
8:55 PM 57.0 °F - 50.0 °F 77% 29.89 in 7.0 mi South 21.9 mph 33.4 mph 0.02 in Rain Light Rain
9:55 PM 55.0 °F - 48.0 °F 77% 29.90 in 10.0 mi South 18.4 mph 26.5 mph 0.00 in Rain Light Rain
10:11 PM 55.4 °F - 48.2 °F 77% 29.88 in 10.0 mi SSW 20.7 mph 29.9 mph 0.01 in Rain Light Rain
10:55 PM 55.9 °F - 48.0 °F 75% 29.89 in 10.0 mi SSW 20.7 mph 38.0 mph 0.01 in   Overcast
11:55 PM 53.1 °F - 48.9 °F 86% 29.89 in 5.0 mi SSW 17.3 mph 28.8 mph 0.03 in Rain Light Rain